GFSSGP_sfc_dewp_087.txt.gz
Dewpoint
48 41 41 37 34 28 25 28 30 30 29 33 44 45 44 44 42 30 59 62 63 66 68 69 70 69 68 68 69 69 69 69 70 69 68 67 66 64 64 65 64 66 65 64 63 64 64 65 65
43 37 39 34 27 21 21 25 28 31 34 42 38 41 41 40 56 58 59 62 65 66 68 68 69 69 68 68 68 69 69 69 69 69 67 67 64 64 64 64 65 65 65 65 64 63 63 63 64
39 34 33 30 22 20 19 23 28 31 40 33 39 43 45 47 56 58 59 63 65 66 68 68 69 69 68 69 68 68 68 68 69 68 67 65 63 64 63 64 65 64 65 65 64 63 63 63 63
36 32 30 24 27 24 23 23 28 31 30 34 40 40 47 55 57 58 61 64 65 67 68 69 69 69 68 68 67 67 68 68 68 68 67 65 63 63 63 65 65 65 65 65 64 63 63 64 63
33 32 28 26 26 24 22 28 29 27 29 34 37 38 50 56 59 60 62 64 65 67 69 68 69 69 69 68 67 67 67 68 68 68 66 65 63 63 63 64 64 62 63 64 64 64 64 65 65
30 29 26 24 24 24 29 29 27 27 28 34 40 47 51 55 58 61 62 64 65 66 69 69 67 68 68 68 67 67 67 68 68 68 66 64 63 63 62 63 62 61 65 65 65 65 65 64 65
28 28 25 23 22 26 27 28 25 25 28 30 43 43 45 53 60 62 62 64 65 66 68 68 68 67 66 66 66 66 67 67 68 68 64 63 62 64 64 64 62 61 63 65 64 65 64 64 64
29 28 26 25 19 23 23 29 25 25 27 39 43 33 39 54 61 62 62 63 65 66 67 67 67 67 66 66 64 64 65 66 66 65 63 62 63 63 63 62 63 62 63 64 64 63 64 63 63
31 25 24 24 19 20 24 25 26 27 27 30 40 38 44 58 61 61 61 62 64 65 66 66 67 67 66 66 64 63 63 64 64 63 61 61 62 61 60 61 62 61 61 63 62 63 62 62 62
28 24 23 23 21 20 23 23 23 25 27 29 32 40 54 60 60 60 60 60 62 62 64 65 66 65 66 65 65 64 63 64 63 63 62 61 60 60 60 59 61 61 60 63 62 61 59 58 58
28 22 21 19 20 22 22 22 25 23 25 25 27 33 55 58 59 59 60 60 60 62 62 63 65 65 66 65 65 64 63 62 62 62 61 59 58 59 60 61 61 60 58 60 59 58 56 57 57
21 23 20 26 25 22 22 22 22 24 25 24 26 38 55 58 58 59 59 60 62 62 62 63 64 65 65 65 64 64 62 61 61 61 60 58 57 58 59 59 60 60 59 59 57 55 55 55 55
21 22 22 25 23 22 23 22 22 21 22 23 29 46 54 58 58 59 60 60 62 62 62 63 64 64 65 65 64 63 63 61 59 59 59 58 56 56 58 58 59 58 57 56 54 54 54 54 54
21 20 23 23 22 23 19 18 20 18 21 23 29 36 48 56 57 58 59 59 60 63 63 63 64 64 64 65 64 64 63 62 60 59 58 58 56 55 56 57 57 57 56 54 53 53 53 53 53
19 17 18 20 23 22 23 13 17 18 18 19 22 26 38 49 55 57 59 59 59 61 63 63 63 64 64 64 64 64 64 63 61 59 58 57 56 55 54 56 56 57 55 53 51 50 51 50 50
15 14 14 14 22 24 15 11 9 22 21 19 17 20 24 29 47 53 56 58 59 60 61 63 63 63 64 64 64 64 64 63 63 60 58 57 56 55 54 54 55 55 54 52 50 49 49 48 48
15 11 12 10 23 24 17 12 16 24 23 22 22 21 21 21 23 30 49 55 57 59 60 62 63 63 63 63 63 63 63 63 63 62 59 57 56 55 54 53 54 54 54 53 50 48 48 47 46
12 6 12 7 18 23 22 19 20 21 22 22 22 22 22 22 23 24 25 40 52 56 58 60 62 63 63 63 63 63 63 63 63 62 60 58 57 56 54 54 54 54 53 53 51 48 47 46 47
13 7 7 15 24 23 21 20 20 22 22 22 21 20 20 21 22 23 25 27 34 51 54 58 60 62 63 62 62 62 62 62 63 62 61 59 58 57 56 56 54 53 52 52 51 48 44 43 40
14 13 14 18 24 22 22 19 20 20 21 22 21 20 20 20 20 23 25 26 29 36 49 54 58 60 62 62 62 62 61 62 62 62 62 61 59 58 57 56 55 54 53 52 50 46 42 45 39
16 12 14 12 18 18 13 10 9 14 18 19 20 21 25 25 26 29 30 32 35 31 31 46 53 58 61 62 62 59 60 59 62 62 62 62 60 60 58 57 56 54 54 52 51 49 47 45 38
13 16 16 17 15 7 16 -1 12 14 15 19 21 24 28 31 32 32 32 34 35 39 38 32 40 52 57 61 61 61 60 59 60 61 62 62 62 60 59 58 57 56 54 54 52 50 49 48 44
14 20 18 18 18 17 16 9 8 10 13 15 23 29 31 32 33 33 34 36 36 39 41 43 43 43 49 57 60 60 60 60 59 59 60 61 62 62 61 60 59 58 56 55 54 52 50 49 49
24 18 18 19 13 9 12 8 3 5 11 17 28 29 30 31 32 33 35 36 36 38 39 41 42 45 52 54 57 58 59 58 57 56 57 59 61 61 61 61 60 59 58 56 55 53 52 51 49
18 14 12 12 13 9 15 12 7 11 15 22 27 29 30 31 32 33 33 34 35 36 38 39 40 40 43 50 54 56 57 57 56 56 55 55 54 55 58 59 59 60 59 58 56 54 52 50 50
18 13 14 7 9 8 18 14 9 23 24 27 29 29 30 30 31 33 34 35 35 36 36 37 39 39 40 41 42 47 50 52 53 53 54 54 54 55 56 57 58 58 58 58 57 56 54 52 50
19 14 15 17 11 13 14 15 18 26 27 27 28 29 30 30 32 33 35 35 36 36 36 37 37 38 38 40 40 41 42 43 44 45 48 49 50 50 51 51 53 54 55 57 56 55 53 52 51
19 20 16 16 6 5 7 11 12 25 26 27 28 29 30 31 33 35 36 36 36 36 37 37 37 36 37 38 39 39 40 41 42 42 43 43 44 45 46 47 47 49 51 52 53 54 53 51 51
19 18 18 16 17 9 8 8 14 25 27 27 29 29 30 31 34 35 35 36 35 35 35 35 34 33 33 35 37 37 38 38 39 40 40 41 42 42 43 44 44 45 46 47 49 50 50 51 51
23 18 18 15 14 15 15 10 22 27 28 29 29 29 31 35 35 34 34 34 34 34 33 33 32 32 32 32 34 34 34 35 36 36 37 38 38 40 41 41 42 43 44 45 45 46 47 48 48

GFSSGP_sfc_dewp_093.txt.gz
Dewpoint
54 34 35 38 31 25 22 26 32 36 35 40 42 40 36 37 36 45 59 60 61 62 66 66 69 69 69 69 70 71 70 69 68 66 65 65 65 64 64 66 66 65 63 64 65 65 66 66 65
35 30 36 32 26 15 15 24 29 32 35 42 40 36 34 41 51 56 58 60 60 63 63 64 69 69 69 70 70 71 70 69 68 65 65 65 65 64 63 65 67 64 63 63 64 63 63 65 65
36 29 32 29 25 13 15 21 28 34 38 39 36 38 36 43 53 55 59 60 60 61 62 66 69 68 68 69 69 70 70 70 67 65 65 64 65 65 63 67 66 65 63 63 62 62 63 64 64
31 32 30 25 20 20 17 22 29 34 33 34 33 33 45 52 53 56 58 58 59 64 62 68 69 68 67 68 68 69 70 69 68 65 64 64 65 64 65 65 66 66 63 62 63 63 63 64 63
31 32 28 26 22 19 20 24 29 30 27 30 31 32 43 53 56 57 58 57 60 64 63 64 69 69 68 68 68 69 69 69 68 65 64 64 64 64 65 64 66 65 64 63 64 65 64 64 64
30 31 26 24 20 20 22 27 29 25 25 30 29 30 45 55 56 57 57 56 60 62 63 64 66 68 68 68 69 69 69 69 67 65 64 63 64 64 64 63 65 65 65 65 64 64 64 64 64
31 31 27 24 21 21 23 27 25 23 23 26 32 29 45 53 56 57 57 56 59 62 63 62 63 64 66 67 67 68 69 69 67 66 66 65 65 65 65 64 64 66 65 64 64 63 64 64 63
30 30 27 25 20 18 25 26 25 22 22 34 37 25 38 52 57 57 56 57 59 63 64 62 62 62 63 64 64 66 67 67 66 64 64 63 63 63 63 62 63 65 65 64 63 64 64 63 63
32 27 26 24 20 18 26 24 25 25 25 31 36 33 45 55 57 56 56 58 59 61 63 63 62 60 61 62 62 64 64 65 63 62 61 61 59 59 60 61 62 63 64 64 64 63 63 63 62
28 27 25 24 19 19 26 23 23 21 23 25 34 43 53 56 56 56 56 57 58 60 63 64 63 62 61 59 62 62 63 63 62 62 61 60 59 58 58 59 60 60 60 64 63 62 60 60 57
28 26 25 23 20 20 24 23 22 20 21 21 25 36 53 55 55 55 55 56 58 59 62 63 64 62 62 60 62 62 62 62 62 62 62 61 58 58 58 60 58 58 57 57 58 59 58 56 55
23 21 22 23 25 23 24 22 22 21 23 25 26 34 49 52 52 53 54 55 57 59 60 63 64 64 63 62 62 61 61 62 61 62 62 61 59 59 58 58 58 59 57 57 57 57 57 56 56
25 20 22 24 24 23 24 22 20 22 24 24 25 33 44 48 50 51 52 54 56 57 59 62 64 63 64 63 63 62 62 61 61 61 62 60 58 59 58 57 58 57 56 56 56 56 56 56 56
22 22 22 22 23 23 22 21 21 19 21 22 24 30 37 44 48 50 51 53 55 57 58 60 62 63 63 63 64 63 63 62 61 61 61 60 59 58 58 57 57 57 56 56 55 54 55 55 56
23 21 21 20 21 21 21 18 18 16 16 16 20 24 31 40 46 49 52 53 54 56 58 59 61 62 63 64 64 63 63 63 62 61 61 60 59 58 57 57 57 57 56 55 54 54 55 54 54
17 19 17 19 21 24 21 16 17 18 16 14 14 18 27 33 43 48 50 53 54 56 58 60 61 62 63 64 64 64 64 64 64 63 61 61 60 58 58 58 58 58 58 56 54 53 53 53 52
17 12 15 14 21 21 18 15 17 18 20 14 13 14 18 22 28 41 49 52 54 55 56 59 61 62 63 64 64 64 64 64 64 63 63 62 60 59 58 57 57 57 57 56 54 53 53 52 51
15 12 13 13 17 21 19 17 15 19 19 19 17 19 22 21 21 23 27 39 50 54 56 57 60 62 63 63 64 64 64 64 64 64 63 62 62 60 59 58 57 57 56 55 54 53 53 52 52
12 11 10 11 21 19 18 16 12 13 19 18 19 19 20 21 22 23 25 28 30 39 52 56 58 60 61 62 63 63 63 64 64 64 64 63 63 62 61 59 58 58 56 56 55 55 54 52 52
12 10 8 19 23 22 19 17 14 15 20 20 20 19 19 21 25 29 30 30 30 30 38 50 55 57 60 62 63 63 63 64 63 64 64 63 63 63 61 60 59 58 56 56 56 55 53 52 51
11 9 10 9 21 20 17 12 13 15 17 21 21 21 24 26 27 31 35 37 38 35 34 37 46 54 58 61 62 63 63 63 63 63 63 63 63 63 62 61 60 59 57 56 56 55 52 52 52
11 12 15 20 15 4 17 -3 11 11 16 22 27 26 28 31 32 34 36 38 42 44 42 34 41 47 53 57 59 61 60 59 59 61 63 63 63 63 62 62 61 60 59 57 56 55 54 53 52
14 18 17 19 13 15 12 5 -1 11 15 23 29 31 32 34 34 35 37 39 41 45 49 44 37 44 50 54 56 58 59 59 58 60 61 62 63 62 62 61 61 60 59 57 57 56 54 54 53
21 18 19 18 14 7 4 6 -0 8 10 23 29 31 33 33 34 35 37 39 41 44 45 49 51 49 47 51 55 55 55 56 57 58 60 61 60 61 61 61 61 61 60 59 58 57 56 55 54
18 13 12 10 13 8 14 16 4 12 16 24 28 31 32 34 34 35 36 38 40 41 42 43 45 50 55 55 55 56 57 58 58 57 57 57 57 58 58 58 59 59 59 59 58 57 56 55 54
20 11 16 19 15 11 19 14 9 16 21 27 29 31 33 34 36 37 38 38 39 40 40 41 42 41 42 44 45 48 52 52 50 48 48 48 47 48 48 48 51 52 54 54 56 57 56 56 55
18 14 16 18 23 19 12 12 19 25 25 28 29 31 33 35 37 37 37 37 38 38 38 39 39 40 40 40 41 41 41 42 42 42 43 42 42 41 43 44 45 46 47 48 49 52 52 53 54
19 14 11 14 23 18 10 11 6 23 24 28 29 30 33 36 36 37 36 37 36 36 36 37 36 37 37 38 37 37 37 37 38 38 38 38 38 38 38 40 41 42 43 44 46 48 49 50 50
17 15 15 9 18 27 16 5 9 21 24 27 29 30 33 36 36 36 36 36 36 36 36 36 36 36 36 36 36 36 36 35 35 35 35 36 36 36 36 37 38 38 39 40 42 43 44 44 46
20 14 14 13 19 13 22 13 23 20 24 28 29 31 34 36 35 35 35 35 35 35 34 34 34 34 34 35 35 33 33 33 33 33 33 35 34 36 35 36 36 36 36 37 38 39 40 40 42

GFSSGP_sfc_dewp_096.txt.gz
Dewpoint
55 40 42 44 39 34 28 32 35 37 36 39 39 37 39 48 48 51 59 60 61 64 66 68 70 70 70 71 70 70 70 68 66 66 66 65 66 65 65 65 66 66 64 65 65 64 64 65 65
39 37 40 42 32 25 21 29 33 35 39 40 37 36 37 48 54 57 58 62 64 64 64 66 69 70 70 71 71 70 70 68 66 65 66 64 65 65 67 65 66 65 64 64 62 63 64 65 65
44 35 37 37 32 20 21 25 32 37 38 36 35 36 42 48 55 57 59 61 61 61 63 67 69 70 70 70 70 70 69 68 66 65 66 66 64 65 67 66 66 64 62 63 63 64 63 64 64
35 37 34 29 28 20 20 26 32 34 33 35 33 40 48 52 54 58 59 59 61 61 65 68 69 69 69 70 70 70 70 68 65 64 65 66 64 64 66 67 66 64 64 64 64 63 62 63 63
35 37 33 29 23 19 22 27 30 29 29 32 30 37 48 55 57 58 58 61 63 62 65 67 69 69 69 69 70 70 70 68 66 64 65 65 64 64 65 66 66 64 64 65 65 63 64 64 63
35 36 30 27 23 20 24 26 28 25 26 30 28 41 51 55 56 57 57 61 63 62 64 66 66 67 68 69 69 70 69 68 66 64 64 65 64 64 64 66 66 65 64 63 62 64 64 64 63
37 37 31 27 23 24 24 27 26 23 23 27 31 35 50 53 57 57 56 59 61 62 63 65 66 66 66 67 67 69 68 68 67 66 65 66 66 66 64 65 67 66 64 64 64 65 64 63 62
35 35 31 27 23 24 26 26 26 22 29 35 38 32 46 54 56 56 55 59 62 62 61 61 63 64 64 65 64 66 67 66 65 64 64 63 63 62 61 61 65 65 64 64 65 64 64 63 62
38 32 31 28 26 25 26 25 26 25 28 32 35 44 50 56 56 56 55 58 63 63 62 61 62 62 63 64 63 64 64 64 63 62 61 60 60 60 60 61 62 63 61 62 64 63 63 62 61
31 32 31 27 23 25 25 23 24 21 26 31 37 49 54 56 55 55 56 57 59 61 62 62 61 60 62 61 63 64 64 63 62 62 60 61 59 59 59 58 59 60 61 62 61 60 60 60 58
30 31 29 23 25 24 26 24 22 21 23 25 33 48 53 55 55 55 55 57 58 61 63 63 62 61 61 61 62 63 63 63 63 62 62 60 59 58 60 59 57 57 57 57 58 59 58 57 55
28 27 25 28 28 26 26 24 23 22 24 27 30 47 53 54 54 54 55 56 58 59 62 63 63 61 62 62 62 62 62 63 62 62 62 60 59 58 58 59 59 58 57 57 57 58 57 56 55
29 23 24 28 26 25 24 24 23 23 24 25 29 44 50 51 52 53 54 55 57 59 62 63 63 63 63 62 62 62 62 62 62 62 62 61 59 59 58 58 58 58 57 57 56 56 56 56 56
25 25 24 25 24 26 24 23 23 22 24 23 28 34 44 48 49 50 51 53 56 58 59 62 63 63 63 63 63 63 62 62 62 61 62 61 59 59 58 58 57 57 57 56 55 55 55 55 56
26 23 23 23 24 24 24 22 20 18 19 19 22 27 34 42 47 49 50 52 54 57 59 61 62 63 62 63 63 63 62 62 61 61 61 61 60 58 57 58 57 57 57 56 54 54 54 54 54
23 23 22 23 23 27 25 22 21 17 15 16 18 21 29 35 42 47 50 52 53 55 57 59 60 62 62 63 64 64 64 63 63 63 61 61 60 59 57 57 57 58 57 56 54 54 53 53 53
20 18 19 19 23 23 21 19 17 20 18 16 14 16 26 29 37 43 49 52 53 55 57 59 61 62 62 63 64 64 64 64 64 63 63 62 61 60 58 56 57 57 57 55 55 53 52 52 52
18 16 17 17 19 23 19 19 18 18 19 19 14 17 19 20 25 31 41 46 52 54 56 58 61 62 62 62 64 64 64 64 64 64 63 62 62 61 59 58 57 57 56 55 55 53 52 52 51
18 16 14 18 21 21 20 19 17 20 19 18 19 19 22 23 24 24 25 26 29 33 53 56 59 61 62 62 63 63 63 64 64 64 64 63 63 63 62 59 58 58 57 56 55 54 53 53 52
16 16 15 22 22 23 19 18 17 17 18 20 19 19 20 21 25 30 29 29 29 30 33 46 56 59 61 62 63 63 63 64 64 64 64 63 63 63 63 62 60 59 57 55 55 55 53 53 52
15 14 15 18 23 22 17 16 20 19 19 20 23 21 23 25 27 32 35 38 39 35 35 35 44 55 59 62 63 63 62 62 63 63 63 63 63 63 63 62 61 60 57 56 55 55 54 53 51
13 16 20 23 17 10 16 1 15 16 17 22 24 23 24 30 32 35 37 39 43 45 42 36 36 45 54 62 61 61 60 60 61 62 63 62 62 62 62 62 61 60 59 57 56 56 55 53 53
19 21 21 23 19 16 13 8 7 15 16 22 27 29 32 32 35 36 38 41 44 46 48 36 38 45 50 53 60 61 59 59 59 60 60 61 62 62 62 61 61 60 59 58 57 56 55 55 54
23 21 20 18 15 11 9 5 8 11 13 22 29 31 34 34 35 36 39 41 43 44 48 51 45 46 49 53 55 56 55 56 57 57 58 59 58 59 60 59 60 60 59 58 58 57 56 55 54
20 16 15 12 14 13 16 12 9 14 19 26 29 32 33 34 35 36 38 40 41 41 42 45 51 53 53 53 53 54 55 54 56 55 55 55 54 53 47 50 52 54 55 56 56 56 55 55 55
21 13 20 12 17 13 18 12 12 20 21 28 30 32 33 35 37 37 38 39 40 41 41 41 42 43 44 45 47 48 48 46 45 45 45 44 44 44 44 45 46 46 47 47 49 50 52 52 52
20 15 19 17 18 21 15 14 23 25 24 29 31 32 34 36 37 38 38 38 38 39 39 39 39 40 40 40 40 40 40 40 40 39 40 40 39 38 40 41 41 42 43 44 45 46 46 47 48
20 16 14 17 11 12 14 14 10 23 24 29 30 32 34 36 37 37 37 37 37 37 37 37 37 38 38 38 37 37 37 37 37 37 37 37 37 37 37 38 38 39 39 40 41 42 43 43 44
17 16 15 12 21 19 16 11 13 21 23 28 30 31 35 36 36 36 36 36 36 36 36 36 37 37 37 37 36 36 36 35 35 35 35 35 36 36 36 36 37 37 37 37 38 38 39 39 40
23 16 15 15 15 16 23 16 23 22 23 28 29 31 35 37 36 35 35 36 36 35 34 34 34 35 35 35 35 34 34 33 33 33 33 34 34 35 34 35 35 35 35 35 35 36 36 36 37

GFSSGP_sfc_dewp_102.txt.gz
Dewpoint
55 42 42 39 32 30 29 34 37 36 35 36 43 49 51 53 50 46 61 64 63 63 68 69 71 71 70 70 70 69 68 67 66 66 66 66 65 65 65 65 66 64 63 64 65 66 67 67 67
52 39 38 36 28 26 21 32 36 37 36 47 44 48 52 52 57 62 63 65 66 67 68 69 70 71 70 70 69 68 68 67 64 65 67 66 65 65 64 64 64 64 64 64 65 66 66 65 65
37 40 31 32 28 22 26 34 38 38 38 35 39 47 53 54 58 59 65 66 66 66 68 68 70 71 70 70 69 68 68 68 67 66 68 66 65 64 64 64 64 65 63 63 64 65 65 64 64
34 34 31 25 24 19 29 36 34 33 33 39 45 47 53 56 57 63 64 64 65 66 68 69 70 70 70 70 68 67 66 67 66 65 66 66 66 64 64 65 64 64 63 62 63 64 64 64 63
33 33 29 28 19 25 34 36 33 31 32 34 44 47 52 57 62 63 62 65 65 65 67 68 69 70 70 70 68 67 66 66 66 65 65 66 66 65 65 65 64 65 64 63 63 63 63 63 62
29 32 28 26 19 24 29 32 29 30 34 45 48 50 51 58 60 61 63 64 65 66 67 67 66 68 69 69 69 68 67 66 66 65 65 65 66 66 65 65 64 64 63 63 63 63 63 62 62
29 31 28 25 19 22 25 28 29 29 29 29 48 49 52 57 61 62 62 63 64 66 65 65 66 66 66 67 67 67 67 66 67 66 65 65 65 67 67 66 65 62 62 64 63 63 62 62 61
32 31 30 29 21 22 25 25 24 27 31 37 50 50 53 56 61 62 61 63 63 64 64 64 64 65 65 66 65 65 66 66 66 65 63 62 62 63 63 63 65 64 64 64 64 63 62 61 60
33 29 28 28 22 23 26 24 25 31 34 43 46 52 54 56 60 61 61 62 62 63 63 63 63 63 64 65 63 63 63 63 63 62 61 60 59 59 59 61 63 65 64 63 63 62 61 60 59
27 30 29 29 25 24 25 23 23 31 35 48 52 54 56 56 60 60 60 60 60 61 61 62 62 63 63 65 63 62 61 60 60 60 59 60 59 59 58 58 60 62 63 63 61 60 60 59 58
30 26 31 26 25 26 24 23 23 29 27 45 52 54 55 55 57 60 60 60 60 60 61 61 62 62 62 63 63 62 61 60 60 59 60 59 59 58 57 57 56 57 56 56 57 57 57 57 55
26 26 24 29 27 26 24 23 22 23 22 39 54 55 55 54 55 58 60 60 61 60 60 61 61 62 61 62 62 62 61 61 60 59 60 58 58 57 57 56 56 56 56 55 55 56 57 55 55
26 24 25 27 27 27 24 22 22 23 26 49 54 55 54 54 54 56 59 60 61 61 61 61 61 61 61 60 61 62 61 61 61 61 60 59 57 56 58 57 57 56 56 56 55 55 55 55 55
26 26 24 25 25 25 23 22 22 23 33 52 54 54 54 54 54 55 56 58 61 61 62 62 62 61 61 60 61 61 61 62 61 61 61 59 58 57 57 57 57 57 56 56 56 55 54 54 54
26 23 23 23 24 23 22 21 19 22 37 51 52 53 54 54 55 55 55 57 60 61 62 62 63 63 61 61 61 61 62 61 61 61 61 60 59 58 57 57 56 57 56 55 55 54 53 53 53
22 22 19 21 23 23 21 18 20 23 32 44 46 49 52 53 54 55 55 55 58 61 62 62 62 63 62 62 62 62 62 62 62 62 62 61 60 58 57 57 56 56 56 55 54 53 52 52 52
21 19 19 20 23 20 20 18 19 19 22 25 27 33 42 48 47 51 52 54 57 60 62 62 62 62 62 62 62 63 63 63 63 63 62 61 61 59 58 56 56 56 55 54 54 53 51 52 51
19 17 18 18 20 19 18 17 18 17 16 17 17 19 26 35 39 44 49 51 55 59 61 62 62 62 62 62 62 64 64 63 63 63 63 62 62 61 59 57 56 56 56 56 55 54 54 53 52
19 16 17 17 20 18 17 17 16 17 19 17 15 16 23 29 32 35 41 49 53 56 59 61 62 62 61 62 61 63 63 63 63 63 63 63 63 62 61 60 58 57 56 56 56 55 54 54 53
18 16 16 21 22 18 19 16 17 17 18 18 17 16 22 22 25 25 27 28 34 38 52 58 61 62 61 62 61 61 63 63 63 64 63 63 63 63 63 62 60 58 57 56 56 54 54 54 53
15 15 17 16 20 19 17 15 17 19 19 18 19 18 21 22 26 28 29 32 34 30 32 38 59 62 61 61 62 62 62 63 62 63 63 63 63 63 63 62 62 61 59 56 55 56 55 54 54
14 16 17 20 13 10 12 9 5 17 18 19 19 20 21 23 28 31 36 40 41 42 43 39 37 60 61 61 62 60 60 60 61 62 62 62 62 62 61 61 61 60 60 58 57 56 56 55 53
16 21 22 22 13 13 18 3 3 16 16 18 19 21 23 27 30 35 39 42 44 47 45 37 35 43 60 61 62 60 60 59 59 60 60 60 56 56 58 59 59 59 59 57 57 56 55 55 54
22 19 17 18 14 10 10 7 4 13 14 16 20 22 23 30 36 38 41 43 44 46 46 38 45 50 58 61 60 60 59 58 58 58 58 55 49 48 49 49 49 50 52 51 51 50 51 51 52
19 13 12 8 13 12 15 8 6 9 14 16 18 23 30 34 37 39 41 42 43 46 47 48 49 50 53 56 56 57 56 57 56 54 52 47 45 44 43 43 43 44 44 44 46 45 45 45 45
17 12 14 7 11 7 15 12 10 15 17 21 21 28 34 35 37 39 40 41 41 44 46 47 47 47 48 50 48 48 47 46 45 44 41 40 39 39 39 39 40 39 39 40 41 41 41 39 39
16 13 15 17 15 17 11 10 13 21 22 28 30 33 34 35 37 39 40 40 40 41 42 43 42 41 42 43 42 41 41 40 38 38 38 37 37 36 36 36 36 36 37 37 37 38 36 36 36
19 17 16 17 12 11 11 11 4 17 16 26 31 32 34 35 37 38 38 38 39 39 38 38 39 38 38 38 38 38 37 37 36 36 35 35 35 35 34 34 34 34 34 35 35 35 34 33 34
16 14 13 17 19 14 9 7 15 12 17 24 30 32 34 36 37 38 37 37 37 37 37 37 37 36 36 36 36 35 35 34 34 34 34 34 33 33 33 33 33 33 32 33 33 32 32 32 32
21 15 15 12 13 16 17 9 15 16 18 23 31 32 35 37 37 37 36 36 36 36 36 36 35 35 35 34 33 33 33 32 32 32 32 32 32 32 31 32 32 32 31 32 31 31 32 31 31

GFSSGP_sfc_dewp_105.txt.gz
Dewpoint
52 41 41 38 30 30 29 34 36 37 34 42 48 46 48 52 47 43 61 64 66 66 67 69 70 70 69 69 68 68 68 66 66 66 65 65 65 65 65 64 66 65 66 65 66 66 66 66 66
45 38 37 35 28 26 24 30 35 37 44 51 46 51 51 51 58 61 61 64 65 68 69 69 70 70 69 69 68 68 67 67 67 67 66 65 64 64 64 64 64 64 63 65 65 66 65 65 65
35 36 30 31 27 24 25 35 36 38 47 36 45 51 52 54 59 61 64 66 67 67 68 69 70 70 69 68 68 68 67 67 68 67 66 64 64 64 63 64 62 63 62 63 65 65 64 64 65
33 33 31 27 26 20 28 36 38 34 34 45 49 49 54 57 58 64 65 66 66 66 67 69 70 70 69 68 67 67 68 67 67 67 66 64 64 64 64 64 64 64 63 63 64 64 63 63 64
34 33 29 26 21 24 30 37 34 32 32 39 46 48 52 58 64 64 64 65 65 66 67 68 69 70 69 68 66 67 67 66 66 66 66 64 64 65 65 65 64 63 63 63 63 63 63 62 63
29 32 27 26 21 28 34 34 30 31 39 47 50 51 52 61 62 63 64 64 65 66 66 67 67 68 69 68 67 67 67 66 65 65 66 66 65 65 64 63 63 63 63 62 63 63 62 61 61
29 31 28 26 21 27 29 30 30 34 41 41 51 50 52 57 61 63 63 63 64 65 65 65 66 67 66 67 67 66 67 67 66 66 65 66 67 67 66 65 64 63 63 63 62 62 62 61 60
32 32 30 26 20 22 25 25 28 29 30 46 52 50 54 57 62 62 63 63 63 64 64 64 64 66 66 65 64 65 66 66 66 64 63 62 63 64 64 64 65 64 64 63 63 62 61 61 61
33 29 28 28 21 22 25 23 25 32 35 42 46 53 55 60 61 61 61 61 63 63 62 63 63 64 65 64 62 63 63 63 63 62 60 58 59 59 60 62 64 64 64 63 62 61 61 61 60
28 30 29 30 24 24 25 23 25 32 41 48 50 53 57 61 60 59 59 59 60 61 61 62 62 62 65 65 62 62 61 60 60 60 59 59 58 58 58 58 61 63 62 62 61 60 59 58 56
28 26 30 28 23 26 25 23 24 31 33 45 48 55 57 60 59 59 59 59 59 60 61 60 61 62 62 64 61 60 60 59 59 59 59 59 58 57 57 56 56 56 56 56 57 56 56 56 55
27 27 25 28 28 26 24 23 26 27 25 39 53 56 56 59 59 59 59 59 59 59 60 60 61 61 61 62 61 60 60 59 58 58 59 58 57 56 56 56 55 55 56 55 54 55 56 55 55
31 26 24 26 27 25 24 22 22 23 27 52 54 55 55 58 59 60 60 60 60 59 60 60 60 60 60 61 61 61 60 60 59 59 59 58 57 56 56 56 56 55 55 55 54 54 55 54 54
37 37 26 24 24 25 22 22 23 23 41 53 54 54 55 54 57 59 60 60 60 60 60 60 61 61 61 60 60 61 60 61 60 60 59 58 57 56 57 56 56 56 55 55 55 54 54 54 53
42 39 34 22 24 23 22 21 20 23 48 52 53 54 54 54 55 57 59 60 60 61 61 61 60 61 61 60 60 61 61 61 61 61 60 59 58 57 57 56 56 56 55 54 54 53 53 52 53
38 27 24 22 23 23 21 20 21 26 49 51 52 52 53 54 55 55 57 59 61 61 61 61 62 61 61 60 60 61 61 61 60 61 61 60 59 58 56 56 56 56 55 55 54 53 52 51 51
31 26 19 20 23 21 20 19 20 24 43 49 49 50 52 53 54 55 55 56 59 61 62 62 62 62 61 61 61 61 61 61 62 62 62 61 61 59 57 56 56 55 55 54 54 53 51 51 52
27 19 19 18 20 20 19 18 18 20 30 40 43 44 47 51 53 53 54 54 57 60 61 62 62 62 62 62 61 62 63 63 63 63 62 61 61 60 59 57 56 56 56 56 55 55 54 53 53
20 19 18 18 20 18 19 19 18 18 17 19 24 25 31 41 48 46 49 52 53 58 61 61 62 61 62 60 60 62 61 63 63 63 63 63 63 62 60 59 58 57 56 56 56 55 54 53 54
19 18 18 21 22 19 18 17 18 17 17 18 17 17 19 25 28 33 37 48 52 55 60 61 62 62 61 62 61 60 60 63 63 63 63 63 63 63 62 61 60 59 57 57 56 55 54 54 53
18 19 18 19 20 19 17 16 16 18 19 18 19 18 17 22 26 28 29 32 41 49 56 59 61 61 61 61 61 61 62 62 62 62 62 62 62 62 62 62 61 61 59 58 56 56 55 54 54
20 18 19 20 16 14 15 13 11 16 17 19 18 18 19 21 25 27 28 33 34 34 37 42 57 60 61 61 61 61 60 59 60 61 62 62 62 61 61 61 61 60 59 58 57 56 56 55 53
21 20 19 22 15 12 12 8 9 13 14 17 19 19 20 21 24 28 32 37 41 44 44 40 37 57 61 61 61 61 59 58 59 60 59 55 53 54 56 58 58 58 57 56 55 55 54 54 53
22 19 17 18 14 11 12 11 10 9 11 13 16 19 21 24 27 32 38 42 44 45 46 39 35 38 58 61 61 61 59 58 59 58 56 51 49 48 48 49 49 48 49 49 49 48 46 46 47
19 17 16 13 14 12 13 9 11 9 11 14 14 18 21 26 33 36 40 42 43 46 46 41 42 44 54 60 60 59 58 58 58 57 51 47 45 43 43 43 42 42 43 43 43 42 40 40 40
19 16 17 11 13 10 15 11 11 14 15 14 16 19 25 28 35 38 40 41 42 45 46 46 48 48 53 59 57 55 57 55 53 50 46 43 41 40 39 38 37 37 38 38 38 36 37 36 36
18 14 16 17 16 15 11 11 12 15 15 21 25 27 29 32 36 38 40 41 42 44 45 46 46 45 49 49 48 48 47 47 43 40 39 38 37 36 35 35 34 35 36 35 34 34 33 34 34
18 17 15 18 12 9 10 10 7 9 12 14 25 28 30 34 37 39 40 40 40 42 42 42 42 42 41 42 43 41 40 39 38 37 36 35 35 34 33 33 32 33 34 33 32 32 32 32 33
14 15 16 16 19 13 9 6 14 7 13 10 18 29 33 35 37 38 39 39 39 39 39 39 39 38 38 38 38 37 36 36 35 34 34 33 33 32 32 32 31 31 32 32 31 31 31 31 31
21 15 14 14 14 15 16 11 10 15 16 17 25 31 34 35 37 38 37 37 37 37 37 37 36 36 36 36 35 34 33 33 32 32 32 32 31 31 31 31 30 30 31 30 30 30 30 30 29

GFSSGP_sfc_dewp_111.txt.gz
Dewpoint
51 38 41 40 30 35 32 37 37 37 37 47 47 46 48 51 48 44 63 65 67 67 68 69 70 69 68 68 68 68 67 66 66 66 67 66 65 65 66 66 67 68 66 66 66 66 66 65 65
38 37 40 37 30 27 28 31 37 37 50 51 48 50 50 53 58 61 62 66 67 68 68 68 69 69 68 68 68 68 68 67 66 65 65 65 64 64 64 65 66 66 66 65 65 66 65 64 64
39 34 35 33 30 27 27 30 37 45 49 41 50 52 53 55 59 60 63 67 67 67 68 69 69 69 68 68 69 69 68 67 65 64 63 64 63 63 63 65 66 66 65 64 64 65 65 64 63
34 36 33 28 30 30 26 34 39 47 41 45 50 52 55 59 60 62 66 67 67 68 69 69 69 69 68 68 68 69 69 68 65 64 64 64 63 63 63 63 64 65 64 63 65 65 64 64 63
37 35 30 30 29 27 24 36 44 39 38 45 47 52 54 61 64 64 66 66 65 67 68 68 68 68 68 68 68 68 69 68 66 65 64 63 63 63 64 63 63 64 63 63 63 64 63 63 62
33 33 28 27 27 28 34 38 35 33 40 48 51 53 55 62 62 64 66 65 65 66 68 68 66 67 68 68 68 68 68 68 67 65 65 64 65 65 63 63 63 63 63 63 62 62 62 62 62
33 33 29 27 26 33 36 35 32 37 44 46 52 52 56 60 62 64 64 64 64 66 67 68 67 66 65 67 67 67 67 67 67 66 66 67 66 66 66 65 63 63 63 63 62 62 62 61 61
34 33 30 29 25 32 33 31 33 39 40 51 52 50 54 58 63 64 63 62 63 65 66 67 67 66 65 66 64 65 66 66 65 65 65 64 64 64 64 64 64 63 62 62 62 62 61 61 61
37 32 30 29 25 29 29 27 32 37 48 46 50 52 55 62 63 62 60 61 62 64 65 67 66 65 64 64 62 63 64 63 62 62 60 60 62 62 63 63 64 64 63 62 62 61 60 58 59
33 33 31 31 25 25 27 27 29 37 43 46 50 57 60 61 61 60 57 57 59 60 62 65 66 65 64 63 63 64 63 61 60 60 60 60 60 60 60 60 60 60 60 62 61 60 58 57 56
32 31 29 27 29 27 27 25 32 37 40 42 47 55 59 60 60 58 57 58 58 60 61 63 65 65 64 63 62 62 61 61 59 59 59 59 58 58 58 58 58 58 56 57 57 57 57 57 56
32 29 31 34 29 28 26 26 29 35 34 36 46 57 58 59 58 57 57 57 58 59 60 62 63 64 64 63 62 60 60 60 59 59 60 59 58 58 58 57 57 57 57 57 57 57 57 56 56
35 31 37 37 28 27 26 25 26 31 30 47 55 58 58 58 58 59 57 57 58 59 60 61 62 62 62 62 61 60 59 59 59 59 60 59 58 58 57 56 57 57 57 57 57 57 56 56 55
40 39 39 36 32 27 25 23 26 26 48 52 56 57 58 58 58 59 58 57 57 58 59 61 61 62 61 61 61 60 59 59 59 60 60 59 58 58 58 57 58 58 58 57 57 56 56 55 55
41 37 38 37 27 25 24 23 22 27 50 52 54 56 58 57 58 59 59 58 57 58 58 59 61 61 61 61 62 61 60 60 59 60 60 59 58 57 58 58 58 58 58 57 56 56 55 55 54
42 39 37 37 27 25 26 24 25 33 48 50 52 53 55 57 58 59 59 59 59 58 58 59 59 60 61 60 61 61 61 61 61 61 61 59 59 57 58 58 57 58 57 57 56 56 55 55 54
42 38 36 37 31 27 24 24 24 35 45 47 50 52 53 54 54 57 59 60 60 60 59 59 60 60 60 60 60 60 61 60 61 61 61 61 60 59 58 58 58 57 57 56 56 55 55 55 55
37 38 34 37 29 23 23 21 22 23 42 41 48 50 52 53 54 55 57 59 60 61 61 60 60 60 60 60 60 60 61 61 61 62 62 62 61 60 59 58 58 57 57 57 56 56 56 55 56
38 39 37 25 36 25 22 21 22 21 27 35 45 49 50 52 54 55 55 57 59 60 61 61 61 61 60 60 60 60 60 61 62 62 62 62 62 61 60 59 58 58 57 57 57 56 56 55 55
32 32 32 34 22 21 21 20 21 20 20 23 32 44 48 49 48 52 54 55 56 58 60 61 61 61 61 60 61 61 61 62 62 63 63 62 62 62 61 61 60 59 58 58 57 56 56 56 56
31 25 23 22 22 21 19 21 19 20 20 20 22 31 40 46 47 46 47 52 54 55 58 60 61 61 61 61 61 60 61 62 62 63 63 63 63 63 62 62 62 60 60 59 58 57 56 56 55
33 29 29 24 25 23 21 19 20 19 19 19 20 20 22 31 36 42 42 43 48 53 56 58 60 61 62 62 61 61 60 60 61 61 62 62 62 62 62 62 62 61 60 59 58 57 57 56 54
26 25 21 23 22 20 17 17 17 15 16 18 19 22 20 22 23 27 32 39 41 47 53 56 58 60 61 62 62 61 61 61 61 60 60 58 59 60 60 61 60 59 58 57 56 56 55 55 53
32 33 34 24 19 18 20 18 17 17 13 15 19 20 21 21 22 22 24 29 33 40 44 50 56 58 61 61 62 61 61 61 60 58 57 56 55 53 54 54 54 54 53 52 50 49 49 49 48
33 32 28 25 22 20 14 16 20 18 14 15 17 19 20 21 21 21 23 28 32 39 42 43 46 55 59 60 61 61 61 61 60 58 56 53 51 51 49 49 48 48 47 45 44 43 42 42 41
30 31 24 17 17 16 15 13 14 17 19 15 14 15 17 18 22 23 23 27 33 40 44 44 41 41 49 59 60 61 61 61 59 58 55 54 51 47 44 43 43 41 39 38 38 38 37 37 37
28 30 24 17 15 16 14 14 15 18 14 14 15 17 18 18 19 23 27 31 37 41 44 45 43 42 40 45 58 59 60 60 58 55 53 48 44 41 39 39 38 35 34 34 34 35 34 35 35
28 28 26 22 11 10 11 10 13 11 13 14 13 15 18 23 26 27 32 36 39 41 43 45 45 44 44 46 49 56 58 57 54 50 46 44 40 37 36 35 34 32 32 32 32 33 33 33 33
19 25 20 23 20 15 12 11 13 13 13 13 15 14 18 24 27 30 36 38 40 41 43 44 45 45 45 48 49 51 52 51 49 47 44 41 37 34 34 33 32 31 31 31 31 32 31 31 31
20 21 21 18 15 15 18 16 13 14 14 15 15 18 20 28 31 34 37 39 39 40 42 43 43 43 43 45 45 45 45 44 45 42 39 37 34 33 32 31 31 30 30 31 30 30 29 29 29

GFSSGP_sfc_dewp_114.txt.gz
Dewpoint
48 37 40 40 29 33 33 36 38 38 38 41 46 46 45 50 45 44 62 62 63 63 65 67 69 69 68 68 68 68 68 68 68 68 67 66 66 66 66 67 68 67 66 65 65 65 65 65 65
37 35 41 37 26 24 29 35 37 37 45 48 48 49 48 50 57 60 60 63 63 64 64 66 69 69 68 68 68 68 68 67 66 65 65 65 65 65 67 67 67 66 66 65 65 64 64 63 63
35 34 35 31 28 24 26 34 37 45 46 45 47 51 51 53 58 59 62 64 64 64 64 66 69 68 68 68 69 68 68 67 66 64 64 64 64 64 66 66 66 65 66 65 63 64 63 62 62
34 36 33 28 24 27 25 34 38 44 41 45 47 48 56 59 59 60 63 63 63 63 65 68 69 69 67 68 69 68 67 66 66 65 64 63 64 62 65 66 65 64 64 64 64 64 63 62 61
37 35 31 29 24 26 23 33 42 40 40 45 47 48 54 60 62 63 63 63 63 64 65 66 68 68 68 68 69 69 67 66 66 65 64 64 64 63 62 64 65 63 63 64 64 63 63 62 61
37 34 31 31 24 24 30 37 42 36 41 46 46 50 55 62 62 63 64 63 63 62 65 66 66 67 68 69 69 69 67 67 66 66 66 66 65 64 63 64 64 63 63 63 63 62 62 62 61
36 33 32 28 26 28 32 39 39 35 39 42 50 49 56 61 62 64 63 63 63 63 65 66 63 64 66 66 67 68 68 67 67 67 67 67 66 66 65 64 63 62 63 62 62 62 62 61 61
35 34 30 28 25 24 36 36 33 36 38 50 52 46 54 59 62 63 63 62 63 64 65 65 63 61 63 65 64 65 66 65 66 66 64 63 64 64 64 63 64 62 62 62 62 62 62 61 60
35 33 31 30 26 26 35 32 35 40 45 48 50 50 56 61 62 62 61 61 61 64 65 65 64 61 62 62 62 63 63 63 63 62 61 61 60 60 60 63 64 63 62 62 61 60 59 59 59
33 35 33 30 25 26 33 33 33 38 44 44 49 56 60 62 60 59 59 58 59 61 64 65 64 61 61 61 62 62 62 60 62 63 62 61 60 60 60 59 60 59 62 62 60 59 58 57 55
38 37 32 25 28 26 28 29 33 34 38 37 42 54 59 60 60 58 58 57 58 60 62 65 64 63 61 60 61 61 60 59 61 62 62 61 59 59 58 58 57 56 57 56 57 56 55 56 55
40 31 30 33 27 26 26 28 30 33 30 36 42 55 59 58 59 59 57 57 56 59 61 64 65 64 63 61 59 59 58 59 57 59 60 60 59 59 57 56 57 58 57 56 57 56 57 56 56
36 32 34 37 31 26 26 26 28 32 29 38 46 56 58 58 59 58 58 57 55 57 60 62 64 64 63 62 60 57 57 58 57 58 59 59 58 58 57 57 57 57 58 57 57 57 57 57 56
37 33 37 38 34 25 25 23 25 26 35 44 51 54 57 59 59 59 59 56 55 57 59 60 62 62 62 61 62 58 57 57 58 59 60 60 59 59 58 58 59 59 59 58 58 57 57 57 57
39 37 38 36 27 24 23 23 23 25 39 43 49 52 55 57 59 59 59 56 53 54 57 60 62 62 61 61 62 60 59 57 59 60 61 60 59 58 58 59 59 59 59 59 58 57 57 57 56
41 39 35 34 28 26 24 26 26 28 38 38 45 50 55 56 58 59 59 57 55 52 54 58 60 61 61 61 62 60 60 59 58 59 61 60 59 58 58 59 59 59 59 58 58 57 57 56 56
42 38 38 37 31 28 26 26 23 28 37 33 42 47 52 55 57 58 59 59 57 55 54 55 58 59 60 60 60 61 60 60 59 60 61 61 60 59 59 59 59 59 59 58 57 57 57 56 57
39 39 38 38 33 27 32 28 27 23 32 33 36 45 49 52 55 57 59 60 59 59 55 54 57 57 58 59 59 59 60 60 59 60 61 62 61 60 59 59 60 59 58 58 57 57 58 57 57
40 40 38 35 38 34 32 33 34 34 24 30 34 41 46 49 51 56 59 60 60 60 60 57 55 56 57 58 59 60 59 60 60 61 62 62 62 61 60 59 59 59 59 59 58 58 57 57 57
42 40 39 39 26 26 31 32 33 31 25 24 26 33 41 46 50 53 56 58 60 60 61 60 59 58 58 58 60 60 60 60 60 62 63 62 62 62 61 61 60 59 59 59 58 57 57 57 57
36 39 35 32 24 24 26 33 30 26 28 24 23 26 33 44 46 49 53 55 57 59 60 61 61 60 60 60 60 61 62 62 62 63 63 63 63 63 62 62 62 61 60 60 59 59 58 57 56
29 28 27 26 24 28 30 30 32 30 29 22 23 24 25 35 45 46 50 53 55 56 58 60 61 61 61 61 61 61 60 60 60 62 63 63 63 62 63 62 62 62 62 61 60 59 58 58 55
32 34 33 28 24 23 21 23 27 23 25 28 23 25 24 26 33 40 47 50 52 56 57 58 59 60 61 62 62 61 61 61 61 61 62 63 63 63 62 62 62 62 62 60 59 58 58 57 56
31 33 33 24 22 25 26 23 26 26 23 24 24 23 25 25 26 28 37 44 47 51 55 57 57 59 60 61 62 62 61 61 62 62 62 60 60 61 62 62 61 59 58 57 56 55 55 55 53
33 32 29 27 24 25 16 21 25 26 23 23 23 22 24 25 25 25 26 30 36 44 48 53 56 56 59 60 61 61 61 61 61 62 61 59 57 56 56 57 56 54 53 51 50 50 51 51 49
32 33 28 24 24 24 16 19 21 22 25 22 18 20 22 23 26 27 27 30 31 34 39 44 50 53 57 59 60 61 61 61 61 61 60 59 57 57 54 54 53 49 47 45 46 45 44 44 42
31 31 25 21 21 18 17 17 19 25 17 18 19 18 19 20 22 24 27 27 28 33 38 40 41 47 51 56 58 59 59 60 60 61 61 58 57 52 48 48 46 42 41 41 40 39 37 38 39
32 32 28 28 23 18 15 14 15 18 15 16 16 17 19 21 23 25 25 26 29 32 35 41 43 44 45 48 57 58 59 60 60 60 58 55 51 48 46 42 42 37 37 37 36 36 35 35 37
29 30 27 28 23 22 18 16 14 15 17 16 17 16 18 21 23 26 29 32 34 37 38 41 44 45 45 44 45 53 58 59 58 55 51 49 46 44 44 42 37 35 34 33 33 34 33 33 32
27 27 27 26 24 20 18 19 18 16 16 14 15 18 20 24 26 30 32 36 38 39 40 42 45 46 46 46 47 48 50 55 54 54 50 46 43 42 39 37 34 32 32 32 32 30 30 30 31

GFSSGP_sfc_dewp_117.txt.gz
Dewpoint
52 36 38 39 32 30 32 33 36 37 38 41 44 43 43 50 47 49 59 60 61 63 65 66 70 69 67 67 67 68 69 69 68 67 66 66 67 67 66 67 68 66 64 63 64 65 65 65 65
38 35 38 34 30 28 29 34 35 36 42 44 46 45 43 51 56 58 59 61 60 62 63 64 69 69 68 68 68 68 68 67 66 66 65 65 66 67 66 66 67 67 64 63 64 64 63 62 62
40 33 35 31 31 29 28 33 36 42 44 44 45 49 47 53 57 57 60 60 60 61 64 66 69 68 67 68 68 68 68 66 66 65 64 64 66 67 66 65 66 66 64 63 64 63 62 62 61
39 36 32 30 30 27 26 32 38 42 41 44 43 44 54 57 58 59 60 60 61 61 64 67 69 68 68 68 68 68 67 67 65 63 63 62 64 66 66 65 65 65 63 62 63 63 62 62 61
39 35 32 32 31 27 24 30 38 40 38 41 43 43 53 58 60 59 59 60 58 62 65 64 68 69 69 69 68 67 67 66 66 63 64 63 63 64 65 65 63 64 62 63 63 63 62 61 61
37 35 32 32 32 25 27 30 37 38 39 43 40 44 54 61 60 59 59 59 60 63 65 64 65 67 68 68 68 67 67 65 64 63 65 64 63 63 64 64 63 63 63 63 63 63 62 61 61
37 35 33 34 34 26 26 35 37 35 38 39 42 42 56 60 62 60 60 60 60 63 65 63 61 64 66 66 67 67 67 66 66 67 66 66 65 65 65 65 63 62 62 62 62 62 62 61 60
40 36 34 34 31 29 33 37 38 36 36 45 46 43 52 59 63 62 60 60 59 62 64 62 60 61 62 64 64 65 65 66 66 65 64 63 64 64 63 63 63 62 62 62 62 62 61 61 60
38 34 34 33 33 30 34 34 35 38 42 44 48 46 54 61 63 61 59 59 61 62 63 62 59 59 59 61 63 63 63 64 63 62 61 61 59 59 61 63 64 62 62 62 61 60 59 59 59
41 37 35 34 31 28 32 32 35 36 41 42 48 54 59 61 61 60 58 58 59 61 62 62 59 58 59 58 61 61 61 62 62 61 61 58 58 60 59 59 60 61 62 61 60 58 58 58 54
40 39 36 29 28 26 31 34 34 35 37 35 42 53 59 61 59 58 56 56 57 59 61 63 61 58 58 58 59 59 58 59 61 61 61 60 59 58 57 58 56 56 58 55 57 56 55 56 55
41 34 30 31 28 27 27 32 32 34 32 35 36 54 59 59 57 56 55 54 55 57 59 62 62 59 58 58 58 58 57 57 59 60 61 60 59 59 57 56 57 57 55 56 56 56 57 56 56
44 40 32 35 31 26 27 27 31 32 33 34 40 55 58 58 57 57 56 55 55 55 57 60 62 62 60 58 56 56 56 56 56 57 59 58 57 58 57 57 57 57 57 56 56 57 56 57 57
44 40 41 37 34 27 26 26 27 27 32 34 45 52 56 58 58 58 56 55 54 53 57 60 63 62 61 60 58 56 56 56 56 57 59 59 58 58 57 58 58 58 58 58 57 57 57 57 57
38 35 36 37 30 25 26 25 25 26 30 36 43 47 53 57 58 57 57 57 54 53 56 60 61 63 62 61 61 58 56 56 57 59 60 59 59 58 58 59 59 59 59 58 57 57 57 56 55
38 36 32 33 32 26 28 33 28 26 32 33 38 42 49 53 56 57 57 58 55 52 54 58 60 62 61 60 61 59 57 56 57 59 60 59 59 58 58 59 59 59 59 59 58 57 56 56 56
42 38 37 36 31 27 29 34 28 25 29 31 34 38 46 49 53 56 58 58 54 50 51 55 59 59 61 61 60 59 58 58 57 57 59 60 60 59 59 59 59 59 59 58 58 58 57 57 58
39 39 39 38 36 33 34 34 32 25 25 29 29 35 41 47 50 54 57 58 55 52 50 53 56 57 58 58 58 58 59 59 58 59 60 61 61 60 60 60 60 60 59 58 58 58 59 59 58
41 40 39 39 35 36 36 36 36 36 28 29 27 29 37 41 46 52 55 58 58 57 53 51 53 55 57 58 58 58 58 59 59 59 60 62 61 61 60 61 59 60 59 59 59 58 58 58 58
41 40 40 39 31 36 39 38 38 38 37 33 29 27 29 37 41 48 53 57 58 58 58 55 52 54 55 56 57 57 57 59 59 60 61 62 63 62 61 61 60 60 59 59 59 59 58 58 58
41 40 40 40 37 32 34 35 35 37 37 36 33 30 26 29 38 44 51 55 58 59 59 59 57 55 54 55 56 57 59 60 60 61 63 63 63 63 62 61 61 60 61 60 60 59 58 58 57
37 33 38 28 30 33 33 32 35 36 37 36 36 35 31 27 33 40 47 52 56 59 60 60 60 59 58 58 59 59 60 59 60 61 63 63 63 63 63 62 62 61 61 61 62 61 59 58 56
33 31 30 29 27 26 27 27 29 30 31 33 36 35 34 29 29 35 43 49 53 57 59 61 60 60 61 61 61 61 61 61 60 61 63 64 64 63 63 62 62 62 62 62 62 60 58 58 57
33 31 29 27 25 27 30 27 28 30 28 29 31 33 34 29 28 30 38 48 51 55 58 59 59 60 61 61 62 61 61 61 61 61 62 63 63 63 63 62 62 62 62 61 59 58 58 57 56
33 34 31 30 28 28 20 30 28 31 30 28 28 30 33 32 28 28 31 41 48 52 56 58 58 57 59 61 61 62 62 62 61 62 62 62 61 61 61 61 61 60 59 57 55 54 54 54 54
33 35 29 27 26 25 19 24 25 25 21 25 26 22 25 29 29 31 31 33 40 47 51 54 56 56 57 59 61 61 62 61 61 61 61 61 61 59 60 60 59 57 55 53 51 51 51 51 49
33 33 32 22 25 21 22 22 24 26 22 19 24 22 21 22 23 27 30 30 33 36 41 48 50 54 55 57 59 60 61 61 61 61 62 61 61 59 59 58 54 52 50 48 47 45 44 45 43
33 33 28 29 29 23 22 20 18 23 19 18 19 23 22 23 23 25 25 28 30 33 35 39 40 44 49 54 57 58 60 61 60 60 60 60 60 56 55 53 51 48 46 44 43 42 41 40 41
31 31 29 29 28 26 23 20 17 13 16 17 18 19 18 20 22 23 26 29 31 33 34 37 40 41 43 47 53 57 58 59 59 59 60 59 56 52 52 50 47 46 42 41 40 39 37 37 37
31 31 30 27 27 26 24 22 17 17 17 15 16 18 20 24 27 27 30 32 35 36 37 37 40 43 45 46 47 52 57 58 59 59 57 53 51 49 49 46 43 41 39 37 37 34 34 34 34

GFSSGP_sfc_dewp_123.txt.gz
Dewpoint
61 55 43 40 32 32 32 35 37 38 39 45 46 47 53 54 53 51 63 65 66 65 68 68 69 69 69 71 70 70 70 69 68 68 68 68 68 67 65 65 65 63 63 64 64 64 64 63 63
58 51 38 37 29 31 32 35 38 41 42 46 46 50 52 54 57 58 61 65 64 66 67 67 68 69 69 70 70 70 69 69 67 68 67 68 67 66 66 64 65 63 63 63 63 63 63 63 63
53 50 35 36 32 30 31 37 41 42 45 45 46 53 54 55 57 58 62 64 64 66 66 67 68 69 69 69 69 68 67 68 66 67 68 67 66 66 67 66 64 63 63 63 62 62 62 62 62
50 42 35 29 30 31 32 41 42 41 41 44 51 52 56 58 57 59 63 64 64 65 66 67 69 69 69 68 67 66 67 66 66 67 67 66 65 66 66 65 63 63 63 63 63 62 61 61 62
47 40 33 31 31 28 30 42 42 40 41 43 46 52 54 59 59 60 63 64 63 64 66 67 68 69 68 68 67 67 67 66 65 65 66 66 65 65 65 63 63 63 63 63 62 62 61 61 61
44 38 32 31 32 27 27 32 41 39 40 42 51 53 54 57 57 59 64 63 63 63 66 66 65 67 67 67 67 66 66 65 65 64 63 65 66 65 64 63 63 63 63 63 62 62 61 60 61
44 42 34 33 34 26 28 32 34 38 42 41 46 53 56 58 59 59 64 64 63 63 64 65 66 65 65 66 65 65 64 65 65 65 64 64 63 65 65 64 63 63 63 62 62 62 61 60 60
40 42 38 36 35 35 34 35 37 38 42 44 49 52 53 58 60 60 63 64 63 62 62 63 65 65 64 64 63 64 65 65 65 64 63 62 62 63 63 63 63 62 62 62 62 61 60 60 59
42 37 37 36 35 34 34 34 37 41 42 47 53 53 56 59 60 59 61 63 63 62 60 62 63 64 64 62 61 62 62 63 63 62 60 60 60 61 61 62 63 62 62 61 60 60 60 60 58
45 41 37 34 28 28 34 34 36 38 43 48 56 59 58 61 60 58 59 61 62 62 60 61 61 63 63 62 62 62 61 60 60 60 60 60 61 61 61 60 61 62 61 61 59 59 59 58 56
48 43 38 34 32 28 30 33 36 36 41 46 53 58 59 59 60 58 58 59 60 62 62 59 59 62 62 62 62 61 61 61 59 59 60 59 59 59 58 57 58 57 57 56 57 57 56 55 56
45 48 40 35 31 29 28 30 34 35 35 39 58 59 59 58 59 58 58 58 58 61 62 59 58 58 59 61 61 60 61 61 60 60 60 58 57 58 57 56 55 55 56 56 56 56 56 55 56
47 48 37 36 36 28 28 29 32 32 34 48 58 57 57 58 58 58 58 59 58 59 61 62 57 58 58 59 60 59 58 60 60 60 60 59 58 57 57 57 56 56 56 55 56 56 56 56 56
47 47 41 39 36 27 28 28 28 28 45 56 57 56 57 58 57 58 58 57 58 59 60 63 57 57 58 58 58 57 57 58 59 60 60 59 58 57 57 56 57 57 57 57 57 56 56 56 56
46 44 40 38 38 29 28 29 26 27 40 54 55 56 57 57 58 58 58 56 56 58 58 63 61 59 58 57 57 57 57 57 58 59 59 59 58 57 57 57 58 58 58 57 57 56 56 56 56
42 40 40 42 36 30 28 34 37 28 32 47 53 54 57 57 58 57 56 55 55 56 57 62 62 61 60 60 60 57 57 57 57 58 59 59 59 58 58 58 58 59 58 57 57 57 56 55 55
39 37 38 38 36 28 28 36 36 29 31 34 45 52 56 57 58 57 57 56 55 55 56 60 62 62 61 60 60 60 56 57 58 59 59 59 59 58 58 59 59 58 58 57 57 56 55 55 56
37 40 35 37 38 30 26 26 31 27 28 30 32 42 51 55 56 57 58 57 55 53 56 58 60 62 61 60 59 60 60 57 57 59 60 59 59 59 58 59 59 59 58 58 57 55 56 56 56
39 40 38 35 35 32 29 29 29 30 25 26 29 30 43 51 55 57 57 57 56 53 56 58 59 60 61 60 59 59 59 58 57 57 59 60 59 59 59 59 59 59 58 58 57 56 55 55 57
41 40 39 36 34 32 33 31 33 34 31 26 26 27 29 46 49 54 56 57 57 54 52 57 58 60 61 61 60 59 58 59 57 58 58 60 60 60 59 59 59 59 59 58 57 56 55 55 58
46 42 40 35 33 35 34 36 35 37 36 38 31 29 28 30 46 50 54 56 58 55 51 53 56 58 60 60 60 58 57 58 58 58 58 59 61 60 60 59 59 59 59 58 57 57 55 54 57
42 46 46 34 35 35 37 33 34 37 37 38 38 37 29 28 36 47 52 55 57 57 53 50 55 57 58 59 58 57 56 56 58 58 59 59 61 61 60 60 59 59 59 58 57 59 57 57 55
43 40 38 38 28 31 28 30 30 33 37 38 39 39 37 31 29 39 49 53 56 58 56 52 52 55 56 56 57 57 56 56 57 58 58 59 61 61 61 60 59 59 58 58 58 58 57 58 56
37 36 38 35 34 32 30 31 31 30 31 36 38 38 39 35 30 29 45 51 54 57 58 57 54 51 54 55 56 56 56 55 57 58 59 59 60 61 61 61 60 59 59 58 58 58 57 58 58
39 39 32 31 31 30 30 29 33 33 33 32 30 31 38 38 36 31 30 47 52 55 58 58 58 56 53 54 54 55 55 55 58 58 59 60 60 61 61 61 60 60 59 59 58 58 57 57 57
37 39 33 26 27 27 23 28 29 33 34 32 26 26 27 24 35 35 31 39 49 53 57 58 59 59 59 56 54 54 55 57 57 59 59 60 61 61 61 61 61 60 59 59 58 58 57 57 57
36 37 32 23 18 23 24 25 26 30 29 26 21 23 22 21 23 34 31 32 44 50 53 56 58 59 59 59 60 57 56 57 59 59 60 60 61 61 61 61 60 60 59 58 57 57 55 54 54
37 35 30 28 18 18 22 23 23 20 23 24 23 22 24 21 23 25 30 31 33 43 50 53 55 56 57 57 59 60 60 60 60 60 60 60 60 60 60 59 59 57 56 55 55 54 52 52 47
34 34 32 30 27 22 21 23 25 24 21 20 21 20 25 22 23 25 27 27 29 31 34 40 46 51 52 54 55 56 58 59 59 60 60 60 58 59 59 59 58 57 55 53 54 52 49 49 44
33 35 31 29 27 26 25 22 24 21 17 19 19 19 21 23 25 25 27 29 31 31 32 33 35 38 41 44 50 52 53 55 56 58 59 57 58 56 57 56 55 54 53 52 52 49 48 48 44